EZY351Q EGGD-EGPH

Flight info

Callsign EZY351Q
Flight time 0h 52m
Altitude 26000
Route BCN P69 DIZIM DCT KISWO/N0414F270 DCT AVTIC DCT ANJAK/N0420F280 N38 NOKIN UP16 RIBEL DCT INPIP
Aircraft A320/M-SDE3FGHIRWY/LB1

Departure

Time 2026-05-07 20:57
Airport Bristol Airport (EGGD)

Arrival

Time 2026-05-07 21:49
Airport Edinburgh Airport (EGPH)
Time Latitude Longitude Altitude Speed Heading
2026-05-07 20:46 51.38527 -2.70570 601 ft 0 kts 86°
2026-05-07 20:49 51.38527 -2.70571 601 ft 0 kts 86°
2026-05-07 20:50 51.38527 -2.70587 600 ft 2 kts 104°
2026-05-07 20:50 51.38533 -2.70609 600 ft 2 kts 124°
2026-05-07 20:50 51.38543 -2.70627 599 ft 2 kts 146°
2026-05-07 20:50 51.38557 -2.70637 599 ft 2 kts 168°
2026-05-07 20:51 51.38567 -2.70639 598 ft 0 kts 180°
2026-05-07 20:52 51.38564 -2.70639 598 ft 1 kts 176°
2026-05-07 20:53 51.38550 -2.70637 599 ft 2 kts 176°
2026-05-07 20:53 51.38531 -2.70635 599 ft 3 kts 175°
2026-05-07 20:53 51.38514 -2.70633 600 ft 4 kts 175°
2026-05-07 20:53 51.38477 -2.70593 601 ft 9 kts 104°
2026-05-07 20:54 51.38465 -2.70541 602 ft 0 kts 134°
2026-05-07 20:55 51.38463 -2.70538 602 ft 0 kts 135°
2026-05-07 20:55 51.38452 -2.70526 603 ft 5 kts 151°
2026-05-07 20:55 51.38398 -2.70498 604 ft 9 kts 164°
2026-05-07 20:55 51.38338 -2.70487 606 ft 8 kts 205°
2026-05-07 20:56 51.38325 -2.70535 606 ft 4 kts 258°
2026-05-07 20:56 51.38318 -2.70678 606 ft 40 kts 265°
2026-05-07 20:56 51.38284 -2.71533 603 ft 112 kts 265°
2026-05-07 20:56 51.38238 -2.73078 790 ft 150 kts 266°
2026-05-07 20:57 51.38200 -2.74767 1343 ft 155 kts 265°
2026-05-07 20:57 51.38141 -2.76466 1978 ft 157 kts 265°
2026-05-07 20:57 51.38078 -2.78226 2547 ft 164 kts 264°
2026-05-07 20:57 51.38003 -2.80149 2925 ft 181 kts 263°
2026-05-07 20:58 51.37922 -2.82255 3350 ft 198 kts 264°
2026-05-07 20:58 51.37838 -2.84528 3797 ft 216 kts 264°
2026-05-07 20:58 51.37860 -2.87048 4250 ft 236 kts 282°
2026-05-07 20:58 51.38715 -2.89359 4752 ft 256 kts 316°
2026-05-07 20:59 51.40175 -2.91079 5274 ft 272 kts 327°
2026-05-07 20:59 51.41819 -2.92728 5994 ft 280 kts 327°
2026-05-07 20:59 51.43441 -2.94418 6822 ft 283 kts 325°
2026-05-07 20:59 51.45072 -2.96216 7666 ft 286 kts 323°
2026-05-07 21:00 51.46693 -2.98077 8487 ft 290 kts 322°
2026-05-07 21:00 51.48322 -2.99996 9315 ft 293 kts 322°
2026-05-07 21:00 51.49953 -3.01939 10155 ft 296 kts 321°
2026-05-07 21:00 51.51625 -3.03943 10817 ft 306 kts 321°
2026-05-07 21:01 51.53351 -3.06022 11214 ft 323 kts 321°
2026-05-07 21:01 51.55203 -3.08257 11596 ft 340 kts 321°
2026-05-07 21:01 51.57122 -3.10567 12217 ft 348 kts 321°
2026-05-07 21:01 51.59092 -3.12791 12982 ft 351 kts 325°
2026-05-07 21:02 51.61857 -3.15599 13940 ft 355 kts 326°
2026-05-07 21:02 51.63266 -3.17002 14401 ft 357 kts 326°
2026-05-07 21:02 51.65369 -3.19097 15070 ft 361 kts 326°
2026-05-07 21:02 51.67508 -3.21236 15727 ft 364 kts 326°
2026-05-07 21:03 51.69659 -3.23392 16365 ft 367 kts 327°
2026-05-07 21:03 51.71970 -3.25152 16951 ft 374 kts 342°
2026-05-07 21:03 51.74513 -3.25767 17534 ft 380 kts 359°
2026-05-07 21:03 51.77163 -3.25336 18147 ft 384 kts
2026-05-07 21:04 51.79784 -3.24634 18701 ft 387 kts
2026-05-07 21:04 51.82433 -3.23906 19225 ft 391 kts
2026-05-07 21:04 51.85129 -3.23201 19748 ft 394 kts
2026-05-07 21:04 51.87823 -3.22522 20270 ft 397 kts
2026-05-07 21:05 51.90576 -3.21839 20777 ft 400 kts
2026-05-07 21:05 51.93328 -3.21160 21269 ft 403 kts
2026-05-07 21:05 51.96090 -3.20477 21755 ft 406 kts
2026-05-07 21:05 51.98886 -3.19784 22227 ft 409 kts
2026-05-07 21:06 52.01687 -3.19089 22681 ft 412 kts
2026-05-07 21:06 52.04539 -3.18531 23140 ft 414 kts
2026-05-07 21:06 52.07436 -3.18221 23703 ft 413 kts
2026-05-07 21:06 52.10275 -3.18003 24303 ft 412 kts
2026-05-07 21:07 52.13155 -3.17798 24827 ft 412 kts
2026-05-07 21:07 52.16009 -3.17592 25245 ft 415 kts
2026-05-07 21:07 52.18949 -3.17376 25675 ft 417 kts
2026-05-07 21:07 52.21849 -3.17158 25981 ft 419 kts
2026-05-07 21:08 52.24757 -3.16937 26008 ft 421 kts
2026-05-07 21:08 52.27692 -3.16711 26010 ft 421 kts
2026-05-07 21:08 52.30584 -3.16487 26011 ft 421 kts
2026-05-07 21:08 52.33481 -3.16263 26011 ft 421 kts
2026-05-07 21:09 52.36427 -3.16034 26012 ft 421 kts
2026-05-07 21:09 52.39312 -3.15811 26012 ft 421 kts
2026-05-07 21:09 52.42236 -3.15583 26012 ft 421 kts
2026-05-07 21:09 52.45156 -3.15356 26012 ft 420 kts
2026-05-07 21:10 52.48078 -3.15128 26011 ft 420 kts
2026-05-07 21:10 52.50997 -3.14900 26012 ft 420 kts
2026-05-07 21:10 52.53908 -3.14672 26012 ft 420 kts
2026-05-07 21:10 52.56805 -3.14445 26012 ft 420 kts
2026-05-07 21:11 52.59710 -3.14217 26012 ft 420 kts
2026-05-07 21:11 52.62642 -3.13987 26012 ft 420 kts
2026-05-07 21:11 52.68494 -3.13507 26010 ft 421 kts
2026-05-07 21:12 52.71352 -3.12807 26010 ft 423 kts 11°
2026-05-07 21:12 52.74199 -3.11392 26011 ft 424 kts 20°
2026-05-07 21:12 52.76890 -3.09444 26013 ft 424 kts 24°
2026-05-07 21:12 52.79523 -3.07345 26012 ft 423 kts 25°
2026-05-07 21:13 52.82163 -3.05217 26012 ft 423 kts 25°
2026-05-07 21:13 52.84802 -3.03114 26012 ft 423 kts 25°
2026-05-07 21:13 52.87450 -3.01027 26012 ft 423 kts 24°
2026-05-07 21:13 52.90151 -2.99029 26011 ft 423 kts 21°
2026-05-07 21:14 52.92856 -2.97293 26012 ft 423 kts 19°
2026-05-07 21:14 52.95638 -2.95598 26012 ft 423 kts 19°
2026-05-07 21:14 52.98383 -2.93941 26012 ft 423 kts 19°
2026-05-07 21:14 53.01141 -2.92268 26012 ft 423 kts 19°
2026-05-07 21:15 53.03883 -2.90594 26012 ft 423 kts 19°
2026-05-07 21:15 53.06677 -2.88880 26012 ft 423 kts 19°
2026-05-07 21:15 53.09415 -2.87195 26012 ft 423 kts 19°
2026-05-07 21:15 53.12165 -2.85497 26011 ft 423 kts 19°
2026-05-07 21:16 53.14943 -2.83779 26011 ft 423 kts 19°
2026-05-07 21:16 53.17663 -2.82094 26012 ft 423 kts 19°
2026-05-07 21:16 53.20421 -2.80383 26012 ft 423 kts 19°
2026-05-07 21:16 53.23190 -2.78664 26012 ft 423 kts 19°
2026-05-07 21:17 53.25906 -2.76974 26012 ft 423 kts 19°
2026-05-07 21:17 53.28668 -2.75263 26011 ft 422 kts 18°
2026-05-07 21:17 53.31536 -2.74300 25996 ft 420 kts
2026-05-07 21:17 53.34479 -2.74472 26012 ft 420 kts 353°
2026-05-07 21:18 53.37364 -2.74903 26012 ft 421 kts 353°
2026-05-07 21:18 53.40292 -2.75338 26012 ft 420 kts 353°
2026-05-07 21:18 53.43203 -2.75720 26012 ft 421 kts 354°
2026-05-07 21:18 53.46117 -2.76057 26011 ft 421 kts 354°
2026-05-07 21:19 53.49023 -2.76365 26011 ft 421 kts 355°
2026-05-07 21:19 53.51952 -2.76658 26012 ft 422 kts 355°
2026-05-07 21:19 53.54875 -2.76940 26012 ft 422 kts 355°
2026-05-07 21:19 53.57797 -2.77217 26012 ft 421 kts 355°
2026-05-07 21:20 53.60692 -2.77488 26011 ft 421 kts 355°
2026-05-07 21:20 53.63627 -2.77762 26012 ft 421 kts 355°
2026-05-07 21:20 53.66562 -2.78035 26012 ft 421 kts 355°
2026-05-07 21:20 53.69481 -2.78306 26012 ft 422 kts 355°
2026-05-07 21:21 53.72387 -2.78576 26011 ft 421 kts 355°
2026-05-07 21:21 53.75291 -2.78846 26012 ft 421 kts 355°
2026-05-07 21:21 53.78209 -2.79118 26012 ft 421 kts 355°
2026-05-07 21:21 53.81128 -2.79390 26012 ft 421 kts 355°
2026-05-07 21:22 53.84072 -2.79665 26012 ft 421 kts 355°
2026-05-07 21:22 53.86995 -2.79938 26012 ft 421 kts 355°
2026-05-07 21:22 53.89890 -2.80209 26012 ft 421 kts 355°
2026-05-07 21:22 53.92810 -2.80483 26012 ft 421 kts 355°
2026-05-07 21:23 53.95713 -2.80756 26012 ft 421 kts 355°
2026-05-07 21:23 53.98631 -2.81031 26012 ft 421 kts 355°
2026-05-07 21:23 54.01568 -2.81307 26009 ft 421 kts 355°
2026-05-07 21:23 54.04474 -2.81582 26011 ft 422 kts 355°
2026-05-07 21:24 54.07415 -2.81859 26011 ft 422 kts 355°
2026-05-07 21:24 54.10310 -2.82133 26011 ft 422 kts 355°
2026-05-07 21:24 54.13253 -2.82411 26011 ft 422 kts 355°
2026-05-07 21:24 54.16194 -2.82690 26011 ft 422 kts 355°
2026-05-07 21:25 54.19097 -2.82966 26012 ft 422 kts 355°
2026-05-07 21:25 54.22041 -2.83246 26012 ft 422 kts 355°
2026-05-07 21:25 54.25003 -2.83528 26011 ft 423 kts 355°
2026-05-07 21:25 54.27937 -2.83808 26012 ft 423 kts 355°
2026-05-07 21:26 54.30860 -2.84087 26012 ft 423 kts 355°
2026-05-07 21:26 54.33798 -2.84368 26012 ft 423 kts 355°
2026-05-07 21:26 54.36734 -2.84649 26012 ft 423 kts 355°
2026-05-07 21:26 54.39648 -2.84929 26012 ft 423 kts 355°
2026-05-07 21:27 54.42587 -2.85211 26011 ft 423 kts 355°
2026-05-07 21:27 54.45546 -2.85496 26011 ft 423 kts 355°
2026-05-07 21:27 54.48473 -2.85779 26012 ft 423 kts 355°
2026-05-07 21:27 54.51389 -2.86061 26012 ft 423 kts 355°
2026-05-07 21:28 54.54297 -2.86342 26012 ft 423 kts 355°
2026-05-07 21:28 54.57235 -2.86626 26012 ft 423 kts 355°
2026-05-07 21:28 54.60173 -2.86910 26012 ft 423 kts 355°
2026-05-07 21:28 54.63105 -2.87195 26012 ft 423 kts 355°
2026-05-07 21:29 54.66021 -2.87478 26012 ft 423 kts 355°
2026-05-07 21:29 54.68985 -2.87766 26011 ft 423 kts 355°
2026-05-07 21:29 54.71901 -2.88049 26012 ft 424 kts 355°
2026-05-07 21:29 54.74842 -2.88336 26011 ft 424 kts 355°
2026-05-07 21:30 54.77786 -2.88623 26007 ft 424 kts 355°
2026-05-07 21:30 54.80728 -2.88910 26000 ft 424 kts 355°
2026-05-07 21:30 54.83648 -2.89195 25989 ft 423 kts 355°
2026-05-07 21:30 54.86571 -2.89607 25972 ft 422 kts 349°
2026-05-07 21:31 54.89409 -2.90824 25962 ft 420 kts 338°
2026-05-07 21:31 54.92139 -2.92674 25954 ft 421 kts 335°
2026-05-07 21:31 54.94831 -2.94665 25946 ft 420 kts 334°
2026-05-07 21:31 54.97488 -2.96649 25856 ft 412 kts 334°
2026-05-07 21:32 55.00061 -2.98551 25642 ft 401 kts 334°
2026-05-07 21:32 55.02618 -3.00427 25222 ft 397 kts 334°
2026-05-07 21:32 55.05177 -3.02301 24286 ft 407 kts 334°
2026-05-07 21:32 55.07807 -3.04225 23456 ft 411 kts 334°
2026-05-07 21:33 55.10425 -3.06138 22780 ft 412 kts 334°
2026-05-07 21:33 55.13057 -3.08061 22096 ft 412 kts 334°
2026-05-07 21:33 55.15702 -3.09996 21504 ft 409 kts 334°
2026-05-07 21:33 55.18296 -3.11893 20924 ft 406 kts 334°
2026-05-07 21:34 55.20899 -3.13804 20295 ft 404 kts 334°
2026-05-07 21:34 55.23444 -3.15672 19678 ft 403 kts 334°
2026-05-07 21:34 55.26039 -3.17582 19046 ft 402 kts 334°
2026-05-07 21:34 55.28599 -3.19413 18420 ft 401 kts 339°
2026-05-07 21:35 55.31296 -3.20232 17793 ft 392 kts 358°
2026-05-07 21:35 55.33962 -3.19969 17179 ft 379 kts
2026-05-07 21:35 55.36544 -3.19517 16551 ft 367 kts
2026-05-07 21:35 55.39053 -3.19058 15922 ft 357 kts
2026-05-07 21:36 55.41463 -3.18633 15301 ft 348 kts
2026-05-07 21:36 55.43850 -3.18233 14671 ft 338 kts
2026-05-07 21:36 55.46136 -3.17862 14049 ft 329 kts
2026-05-07 21:36 55.48388 -3.17502 13415 ft 325 kts
2026-05-07 21:37 55.50682 -3.17143 12776 ft 332 kts
2026-05-07 21:37 55.52982 -3.16784 12153 ft 337 kts
2026-05-07 21:37 55.55293 -3.16423 11536 ft 341 kts
2026-05-07 21:37 55.57689 -3.16046 10904 ft 344 kts
2026-05-07 21:38 55.60075 -3.15673 10355 ft 344 kts
2026-05-07 21:38 55.62423 -3.15302 9962 ft 339 kts
2026-05-07 21:38 55.64732 -3.14942 9606 ft 333 kts
2026-05-07 21:38 55.67031 -3.14579 9152 ft 331 kts
2026-05-07 21:39 55.69304 -3.14221 8697 ft 329 kts
2026-05-07 21:39 55.71561 -3.13737 8243 ft 328 kts 11°
2026-05-07 21:39 55.73747 -3.12587 7793 ft 327 kts 19°
2026-05-07 21:39 55.75867 -3.11148 7342 ft 325 kts 21°
2026-05-07 21:40 55.78639 -3.09187 6789 ft 321 kts 21°
2026-05-07 21:40 55.80030 -3.08214 6535 ft 319 kts 21°
2026-05-07 21:40 55.82065 -3.06809 6246 ft 312 kts 21°
2026-05-07 21:40 55.84060 -3.05456 5994 ft 305 kts 19°
2026-05-07 21:41 55.86065 -3.04436 5741 ft 297 kts 11°
2026-05-07 21:41 55.88082 -3.03738 5490 ft 291 kts
2026-05-07 21:41 55.90064 -3.03132 5237 ft 285 kts
2026-05-07 21:41 55.91981 -3.02547 4881 ft 277 kts
2026-05-07 21:42 55.93843 -3.01997 4454 ft 267 kts
2026-05-07 21:42 55.95670 -3.01924 4067 ft 254 kts 353°
2026-05-07 21:42 55.97389 -3.02255 3645 ft 246 kts 349°
2026-05-07 21:42 55.99057 -3.02671 3218 ft 240 kts 349°
2026-05-07 21:43 56.00661 -3.03077 2962 ft 226 kts 348°
2026-05-07 21:43 56.02023 -3.03962 2994 ft 197 kts 318°
2026-05-07 21:43 56.02835 -3.05777 2989 ft 175 kts 289°
2026-05-07 21:43 56.03283 -3.07687 2926 ft 166 kts 285°
2026-05-07 21:44 56.03691 -3.09626 2625 ft 163 kts 278°
2026-05-07 21:44 56.03598 -3.11508 2461 ft 149 kts 244°
2026-05-07 21:44 56.03140 -3.13175 2567 ft 150 kts 238°
2026-05-07 21:44 56.02622 -3.14811 2566 ft 150 kts 236°
2026-05-07 21:45 56.02093 -3.16400 2551 ft 150 kts 235°
2026-05-07 21:45 56.01548 -3.18008 2381 ft 148 kts 235°
2026-05-07 21:45 56.01014 -3.19571 2188 ft 149 kts 235°
2026-05-07 21:45 56.00494 -3.21099 1973 ft 136 kts 235°
2026-05-07 21:46 56.00026 -3.22476 1775 ft 125 kts 235°
2026-05-07 21:46 55.99572 -3.23805 1623 ft 125 kts 235°
2026-05-07 21:46 55.99120 -3.25127 1467 ft 124 kts 236°
2026-05-07 21:46 55.98667 -3.26454 1305 ft 124 kts 236°
2026-05-07 21:47 55.98218 -3.27775 1145 ft 124 kts 236°
2026-05-07 21:47 55.97773 -3.29086 982 ft 124 kts 236°
2026-05-07 21:47 55.97328 -3.30397 815 ft 123 kts 236°
2026-05-07 21:47 55.96877 -3.31699 601 ft 123 kts 236°
2026-05-07 21:48 55.96429 -3.33005 504 ft 123 kts 236°
2026-05-07 21:48 55.95984 -3.34308 360 ft 123 kts 238°
2026-05-07 21:48 55.95556 -3.35622 157 ft 122 kts 236°
2026-05-07 21:48 55.95129 -3.36879 101 ft 110 kts 237°
2026-05-07 21:49 55.94804 -3.37797 104 ft 62 kts 242°
2026-05-07 21:49 55.94667 -3.38215 107 ft 22 kts 240°
2026-05-07 21:49 55.94582 -3.38464 109 ft 23 kts 238°
2026-05-07 21:49 55.94499 -3.38705 111 ft 21 kts 239°
2026-05-07 21:50 55.94422 -3.38914 115 ft 19 kts 228°
2026-05-07 21:50 55.94322 -3.38898 117 ft 14 kts 151°
2026-05-07 21:50 55.94246 -3.38792 119 ft 11 kts 113°
2026-05-07 21:50 55.94269 -3.38696 118 ft 8 kts 58°
2026-05-07 21:51 55.94315 -3.38626 117 ft 9 kts 31°
2026-05-07 21:51 55.94370 -3.38544 115 ft 11 kts 61°
2026-05-07 21:51 55.94417 -3.38403 112 ft 15 kts 58°
2026-05-07 21:51 55.94473 -3.38237 111 ft 16 kts 58°
2026-05-07 21:52 55.94532 -3.38060 110 ft 16 kts 58°
2026-05-07 21:52 55.94601 -3.37857 106 ft 21 kts 56°
2026-05-07 21:52 55.94680 -3.37610 103 ft 24 kts 57°
2026-05-07 21:52 55.94767 -3.37355 102 ft 23 kts 59°
2026-05-07 21:53 55.94852 -3.37116 103 ft 21 kts 62°
2026-05-07 21:53 55.94908 -3.36943 102 ft 14 kts 58°
2026-05-07 21:53 55.94901 -3.36798 102 ft 9 kts 128°
2026-05-07 21:53 55.94907 -3.36704 103 ft 8 kts 46°
2026-05-07 21:54 55.94936 -3.36634 104 ft 6 kts 58°
2026-05-07 21:54 55.94959 -3.36567 104 ft 6 kts 60°
2026-05-07 21:54 55.94976 -3.36501 104 ft 5 kts 95°
2026-05-07 21:54 55.94971 -3.36486 104 ft 0 kts 152°
2026-05-07 21:55 55.94963 -3.36476 104 ft 3 kts 144°
2026-05-07 21:55 55.94939 -3.36449 105 ft 3 kts 149°
2026-05-07 21:55 55.94928 -3.36438 105 ft 0 kts 149°